Time,TemperatureF,DewpointF,PressureIn,WindDirection,WindDirectionDegrees,WindSpeedMPH,WindSpeedGustMPH,Humidity,HourlyPrecipIn,Conditions,Clouds,dailyrainin,SoftwareType,DateUTC
2013-07-08 00:01:00,55.8,42.5,29.84,South,181,5.4,5.4,61,0.00,,,0.00,VWS V14.01,2013-07-08 07:01:00,
2013-07-08 00:06:00,55.8,43.0,29.84,SSW,209,5.8,5.8,62,0.00,,,0.00,VWS V14.01,2013-07-08 07:06:00,
2013-07-08 00:11:00,55.9,43.5,29.84,West,262,6.3,6.3,63,0.00,,,0.00,VWS V14.01,2013-07-08 07:11:00,
2013-07-08 00:16:00,55.9,43.5,29.84,SW,233,4.0,6.3,63,0.00,,,0.00,VWS V14.01,2013-07-08 07:16:00,
2013-07-08 00:21:00,55.8,43.8,29.84,SSW,208,5.8,6.7,64,0.00,,,0.00,VWS V14.01,2013-07-08 07:21:00,
2013-07-08 00:26:00,55.6,43.6,29.84,SW,218,6.7,6.7,64,0.00,,,0.00,VWS V14.01,2013-07-08 07:26:00,
2013-07-08 00:31:00,55.6,44.0,29.84,WSW,258,3.6,6.3,65,0.00,,,0.00,VWS V14.01,2013-07-08 07:31:00,
2013-07-08 00:36:00,55.6,44.0,29.84,SW,224,4.0,5.8,65,0.00,,,0.00,VWS V14.01,2013-07-08 07:36:00,
2013-07-08 00:41:00,55.6,44.0,29.84,SW,231,3.6,5.4,65,0.00,,,0.00,VWS V14.01,2013-07-08 07:41:00,
2013-07-08 00:46:00,55.8,44.6,29.84,WSW,244,2.7,2.7,66,0.00,,,0.00,VWS V14.01,2013-07-08 07:46:00,
2013-07-08 00:51:00,55.8,44.6,29.84,SW,223,5.8,5.8,66,0.00,,,0.00,VWS V14.01,2013-07-08 07:51:00,
2013-07-08 00:56:00,55.8,44.6,29.84,South,188,3.6,5.4,66,0.00,,,0.00,VWS V14.01,2013-07-08 07:56:00,
2013-07-08 01:01:00,55.8,44.6,29.84,SW,220,0.0,2.7,66,0.00,,,0.00,VWS V14.01,2013-07-08 08:01:00,
2013-07-08 01:06:00,55.8,44.6,29.84,SW,214,2.7,5.4,66,0.00,,,0.00,VWS V14.01,2013-07-08 08:06:00,
2013-07-08 01:11:00,55.6,44.8,29.84,SSW,209,3.1,3.6,67,0.00,,,0.00,VWS V14.01,2013-07-08 08:11:00,
2013-07-08 01:16:00,55.8,45.0,29.84,SSW,211,3.1,4.9,67,0.00,,,0.00,VWS V14.01,2013-07-08 08:16:00,
2013-07-08 01:21:00,55.6,44.8,29.84,SW,232,5.8,5.8,67,0.00,,,0.00,VWS V14.01,2013-07-08 08:21:00,
2013-07-08 01:26:00,55.6,44.8,29.84,SSW,210,3.6,5.4,67,0.00,,,0.00,VWS V14.01,2013-07-08 08:26:00,
2013-07-08 01:31:00,55.6,45.2,29.84,WSW,242,4.9,7.2,68,0.00,,,0.00,VWS V14.01,2013-07-08 08:31:00,
2013-07-08 01:36:00,55.6,45.2,29.84,SSW,209,4.9,5.8,68,0.00,,,0.00,VWS V14.01,2013-07-08 08:36:00,
2013-07-08 01:41:00,55.6,45.2,29.84,WSW,258,5.8,5.8,68,0.00,,,0.00,VWS V14.01,2013-07-08 08:41:00,
2013-07-08 01:46:00,55.6,45.2,29.84,SSW,211,3.1,4.0,68,0.00,,,0.00,VWS V14.01,2013-07-08 08:46:00,
2013-07-08 01:51:00,55.6,45.6,29.84,SW,220,4.0,8.3,69,0.00,,,0.00,VWS V14.01,2013-07-08 08:51:00,
2013-07-08 01:56:00,55.6,45.6,29.84,SW,214,5.8,5.8,69,0.00,,,0.00,VWS V14.01,2013-07-08 08:56:00,
2013-07-08 02:01:00,55.6,46.0,29.84,SW,220,5.8,5.8,70,0.00,,,0.00,VWS V14.01,2013-07-08 09:01:00,
2013-07-08 02:06:00,55.4,45.8,29.84,SSW,198,2.7,6.3,70,0.00,,,0.00,VWS V14.01,2013-07-08 09:06:00,
2013-07-08 02:11:00,55.4,45.8,29.84,SSW,212,5.4,5.4,70,0.00,,,0.00,VWS V14.01,2013-07-08 09:11:00,
2013-07-08 02:16:00,55.4,45.8,29.84,SW,214,8.1,8.1,70,0.00,,,0.00,VWS V14.01,2013-07-08 09:16:00,
2013-07-08 02:21:00,55.4,46.2,29.84,SW,227,2.7,6.3,71,0.00,,,0.00,VWS V14.01,2013-07-08 09:21:00,
2013-07-08 02:27:00,55.4,46.2,29.84,SSE,164,5.4,5.4,71,0.00,,,0.00,VWS V14.01,2013-07-08 09:27:00,
2013-07-08 02:32:00,55.4,46.2,29.84,SSW,205,2.7,5.4,71,0.00,,,0.00,VWS V14.01,2013-07-08 09:32:00,
2013-07-08 02:37:00,55.6,46.7,29.84,SW,221,3.1,6.3,72,0.00,,,0.00,VWS V14.01,2013-07-08 09:37:00,
2013-07-08 02:42:00,55.6,46.7,29.84,SW,234,5.4,6.3,72,0.00,,,0.00,VWS V14.01,2013-07-08 09:42:00,
2013-07-08 02:47:00,55.6,46.7,29.84,SSW,200,3.6,6.3,72,0.00,,,0.00,VWS V14.01,2013-07-08 09:47:00,
2013-07-08 02:52:00,55.6,46.7,29.84,SW,224,4.9,5.8,72,0.00,,,0.00,VWS V14.01,2013-07-08 09:52:00,
2013-07-08 02:57:00,55.6,46.7,29.84,SW,230,4.9,5.4,72,0.00,,,0.00,VWS V14.01,2013-07-08 09:57:00,
2013-07-08 03:02:00,55.6,47.1,29.84,South,187,4.0,7.6,73,0.00,,,0.00,VWS V14.01,2013-07-08 10:02:00,
2013-07-08 03:07:00,55.6,47.1,29.84,WSW,247,4.0,6.3,73,0.00,,,0.00,VWS V14.01,2013-07-08 10:07:00,
2013-07-08 03:12:00,55.6,47.1,29.84,SW,232,4.0,4.0,73,0.00,,,0.00,VWS V14.01,2013-07-08 10:12:00,
2013-07-08 03:17:00,55.6,47.1,29.84,WSW,239,5.8,5.8,73,0.00,,,0.00,VWS V14.01,2013-07-08 10:17:00,
2013-07-08 03:22:00,55.6,47.1,29.84,SW,214,4.9,4.9,73,0.00,,,0.00,VWS V14.01,2013-07-08 10:22:00,
2013-07-08 03:27:00,55.6,47.1,29.84,SW,221,3.6,4.0,73,0.00,,,0.00,VWS V14.01,2013-07-08 10:27:00,
2013-07-08 03:32:00,55.6,47.1,29.84,SSW,205,3.6,3.6,73,0.00,,,0.00,VWS V14.01,2013-07-08 10:32:00,
2013-07-08 03:37:00,55.8,47.2,29.84,SSE,165,3.6,3.6,73,0.00,,,0.00,VWS V14.01,2013-07-08 10:37:00,
2013-07-08 03:42:00,55.8,47.2,29.84,SW,220,3.1,3.1,73,0.00,,,0.00,VWS V14.01,2013-07-08 10:42:00,
2013-07-08 03:47:00,55.8,47.2,29.84,SSW,206,6.3,6.3,73,0.00,,,0.00,VWS V14.01,2013-07-08 10:47:00,
2013-07-08 03:52:00,55.8,47.2,29.84,WSW,248,4.0,5.8,73,0.00,,,0.00,VWS V14.01,2013-07-08 10:52:00,
2013-07-08 03:57:00,55.8,47.2,29.84,WSW,249,4.0,4.0,73,0.00,,,0.00,VWS V14.01,2013-07-08 10:57:00,
2013-07-08 04:02:00,55.8,47.2,29.84,SSW,212,4.0,5.4,73,0.00,,,0.00,VWS V14.01,2013-07-08 11:02:00,
2013-07-08 04:07:00,55.8,47.2,29.84,SW,233,3.1,3.6,73,0.00,,,0.00,VWS V14.01,2013-07-08 11:07:00,
2013-07-08 04:12:00,55.8,47.2,29.84,SW,230,2.7,3.6,73,0.00,,,0.00,VWS V14.01,2013-07-08 11:12:00,
2013-07-08 04:17:00,55.8,47.2,29.84,SW,214,3.1,4.0,73,0.00,,,0.00,VWS V14.01,2013-07-08 11:17:00,
2013-07-08 04:22:00,55.8,46.9,29.84,WSW,237,3.6,3.6,72,0.00,,,0.00,VWS V14.01,2013-07-08 11:22:00,
2013-07-08 04:27:00,55.8,46.9,29.84,SW,217,3.1,3.6,72,0.00,,,0.00,VWS V14.01,2013-07-08 11:27:00,
2013-07-08 04:32:00,55.8,46.9,29.84,SSW,209,6.3,6.3,72,0.00,,,0.00,VWS V14.01,2013-07-08 11:32:00,
2013-07-08 04:37:00,55.8,46.5,29.84,WSW,252,6.3,6.3,71,0.00,,,0.00,VWS V14.01,2013-07-08 11:37:00,
2013-07-08 04:42:00,55.8,46.1,29.84,SW,217,4.0,4.0,70,0.00,,,0.00,VWS V14.01,2013-07-08 11:42:00,
2013-07-08 04:47:00,55.8,45.8,29.84,SSW,207,3.1,4.0,69,0.00,,,0.00,VWS V14.01,2013-07-08 11:47:00,
2013-07-08 04:52:00,55.8,45.4,29.84,SW,234,4.0,4.9,68,0.00,,,0.00,VWS V14.01,2013-07-08 11:52:00,
2013-07-08 04:57:00,55.6,45.2,29.84,West,260,6.3,6.3,68,0.00,,,0.00,VWS V14.01,2013-07-08 11:57:00,
2013-07-08 05:02:00,55.6,44.4,29.84,SW,227,2.7,5.4,66,0.00,,,0.00,VWS V14.01,2013-07-08 12:02:00,
2013-07-08 05:07:00,55.4,44.2,29.84,SW,231,4.9,4.9,66,0.00,,,0.00,VWS V14.01,2013-07-08 12:07:00,
2013-07-08 05:12:00,55.4,43.8,29.84,West,260,3.6,7.6,65,0.00,,,0.00,VWS V14.01,2013-07-08 12:12:00,
2013-07-08 05:17:00,55.2,43.3,29.84,SSW,199,2.7,4.9,64,0.00,,,0.00,VWS V14.01,2013-07-08 12:17:00,
2013-07-08 05:22:00,55.2,43.3,29.84,SSW,208,4.9,5.4,64,0.00,,,0.00,VWS V14.01,2013-07-08 12:22:00,
2013-07-08 05:27:00,55.2,42.9,29.84,SSW,197,4.0,4.0,63,0.00,,,0.00,VWS V14.01,2013-07-08 12:27:00,
2013-07-08 05:32:00,55.4,43.0,29.84,SW,215,5.4,5.8,63,0.00,,,0.00,VWS V14.01,2013-07-08 12:32:00,
2013-07-08 05:37:00,55.4,42.6,29.84,SSW,206,4.9,5.4,62,0.00,,,0.00,VWS V14.01,2013-07-08 12:37:00,
2013-07-08 05:42:00,55.4,42.6,29.84,SSW,213,2.7,4.0,62,0.00,,,0.00,VWS V14.01,2013-07-08 12:42:00,
2013-07-08 05:47:00,55.4,42.6,29.84,SW,232,2.7,2.7,62,0.00,,,0.00,VWS V14.01,2013-07-08 12:47:00,
2013-07-08 05:53:00,55.6,42.8,29.87,SW,214,2.7,4.0,62,0.00,,,0.00,VWS V14.01,2013-07-08 12:53:00,
2013-07-08 05:58:00,55.6,42.8,29.87,WSW,240,5.4,5.4,62,0.00,,,0.00,VWS V14.01,2013-07-08 12:58:00,
2013-07-08 06:03:00,55.6,42.8,29.87,SW,230,3.6,3.6,62,0.00,,,0.00,VWS V14.01,2013-07-08 13:03:00,
2013-07-08 06:08:00,55.6,42.4,29.87,WSW,237,3.6,6.3,61,0.00,,,0.00,VWS V14.01,2013-07-08 13:08:00,
2013-07-08 06:13:00,55.6,42.4,29.87,SSW,199,2.7,3.6,61,0.00,,,0.00,VWS V14.01,2013-07-08 13:13:00,
2013-07-08 06:18:00,55.8,42.5,29.87,SSW,197,2.2,3.6,61,0.00,,,0.00,VWS V14.01,2013-07-08 13:18:00,
2013-07-08 06:23:00,55.8,42.5,29.84,SW,224,3.6,5.4,61,0.00,,,0.00,VWS V14.01,2013-07-08 13:23:00,
2013-07-08 06:28:00,55.8,43.0,29.84,SW,216,2.7,4.0,62,0.00,,,0.00,VWS V14.01,2013-07-08 13:28:00,
2013-07-08 06:33:00,55.8,42.5,29.84,SW,214,3.6,3.6,61,0.00,,,0.00,VWS V14.01,2013-07-08 13:33:00,
2013-07-08 06:38:00,55.8,42.5,29.87,WNW,284,4.0,4.0,61,0.00,,,0.00,VWS V14.01,2013-07-08 13:38:00,
2013-07-08 06:43:00,55.9,42.7,29.87,SSW,201,4.0,5.8,61,0.00,,,0.00,VWS V14.01,2013-07-08 13:43:00,
2013-07-08 06:48:00,55.9,42.7,29.87,SSW,212,2.7,2.7,61,0.00,,,0.00,VWS V14.01,2013-07-08 13:48:00,
2013-07-08 06:53:00,55.9,42.3,29.90,WSW,238,3.1,3.1,60,0.00,,,0.00,VWS V14.01,2013-07-08 13:53:00,
2013-07-08 06:58:00,55.9,42.3,29.90,WNW,289,2.2,2.7,60,0.00,,,0.00,VWS V14.01,2013-07-08 13:58:00,
2013-07-08 07:03:00,55.9,41.8,29.90,WSW,238,3.1,3.6,59,0.00,,,0.00,VWS V14.01,2013-07-08 14:03:00,
2013-07-08 07:08:00,55.9,41.4,29.90,WSW,237,3.1,3.1,58,0.00,,,0.00,VWS V14.01,2013-07-08 14:08:00,
2013-07-08 07:13:00,55.9,41.4,29.90,SW,221,2.2,2.7,58,0.00,,,0.00,VWS V14.01,2013-07-08 14:13:00,
2013-07-08 07:18:00,56.1,41.1,29.90,WSW,245,2.7,3.6,57,0.00,,,0.00,VWS V14.01,2013-07-08 14:18:00,
2013-07-08 07:23:00,56.1,40.7,29.90,SW,233,2.7,4.0,56,0.00,,,0.00,VWS V14.01,2013-07-08 14:23:00,
2013-07-08 07:28:00,55.9,40.0,29.90,NW,309,2.7,2.7,55,0.00,,,0.00,VWS V14.01,2013-07-08 14:28:00,
2013-07-08 07:33:00,56.1,39.7,29.90,SW,230,5.8,5.8,54,0.00,,,0.00,VWS V14.01,2013-07-08 14:33:00,
2013-07-08 07:38:00,56.3,39.4,29.90,SSW,205,3.1,4.0,53,0.00,,,0.00,VWS V14.01,2013-07-08 14:38:00,
2013-07-08 07:43:00,56.3,38.9,29.90,SW,227,2.2,3.6,52,0.00,,,0.00,VWS V14.01,2013-07-08 14:43:00,
2013-07-08 07:48:00,56.3,38.4,29.90,SSW,209,3.1,3.1,51,0.00,,,0.00,VWS V14.01,2013-07-08 14:48:00,
2013-07-08 07:53:00,56.5,38.1,29.90,SSW,196,3.1,4.0,50,0.00,,,0.00,VWS V14.01,2013-07-08 14:53:00,
2013-07-08 07:58:00,56.3,37.4,29.90,SSW,209,2.2,4.0,49,0.00,,,0.00,VWS V14.01,2013-07-08 14:58:00,
2013-07-08 08:03:00,56.7,37.2,29.90,SSW,193,2.7,4.0,48,0.00,,,0.00,VWS V14.01,2013-07-08 15:03:00,
2013-07-08 08:08:00,56.7,36.7,29.90,SSW,211,5.4,5.4,47,0.00,,,0.00,VWS V14.01,2013-07-08 15:08:00,
2013-07-08 08:13:00,56.7,36.1,29.90,SSW,199,3.1,3.6,46,0.00,,,0.00,VWS V14.01,2013-07-08 15:13:00,
2013-07-08 08:18:00,56.7,36.1,29.90,SSW,208,3.6,6.3,46,0.00,,,0.00,VWS V14.01,2013-07-08 15:18:00,
2013-07-08 08:23:00,56.8,36.3,29.90,SW,226,4.0,4.0,46,0.00,,,0.00,VWS V14.01,2013-07-08 15:23:00,
2013-07-08 08:28:00,56.8,35.7,29.90,SW,214,3.1,3.6,45,0.00,,,0.00,VWS V14.01,2013-07-08 15:28:00,
2013-07-08 08:33:00,56.8,35.7,29.90,SW,216,3.1,4.0,45,0.00,,,0.00,VWS V14.01,2013-07-08 15:33:00,
2013-07-08 08:38:00,57.0,35.9,29.90,SW,218,2.7,3.1,45,0.00,,,0.00,VWS V14.01,2013-07-08 15:38:00,
2013-07-08 08:43:00,57.0,34.8,29.90,SW,230,3.1,4.9,43,0.00,,,0.00,VWS V14.01,2013-07-08 15:43:00,
2013-07-08 08:48:00,57.0,34.2,29.90,SW,220,5.4,5.4,42,0.00,,,0.00,VWS V14.01,2013-07-08 15:48:00,
2013-07-08 08:53:00,57.2,34.3,29.90,SW,221,2.2,3.6,42,0.00,,,0.00,VWS V14.01,2013-07-08 15:53:00,
2013-07-08 08:58:00,57.6,34.7,29.90,WSW,256,3.6,4.0,42,0.00,,,0.00,VWS V14.01,2013-07-08 15:58:00,
2013-07-08 09:03:00,57.6,34.1,29.90,SW,219,4.0,4.0,41,0.00,,,0.00,VWS V14.01,2013-07-08 16:03:00,
2013-07-08 09:08:00,57.6,32.8,29.90,SSW,212,3.1,4.5,39,0.00,,,0.00,VWS V14.01,2013-07-08 16:08:00,
2013-07-08 09:13:00,57.6,32.8,29.90,SW,224,3.6,5.8,39,0.00,,,0.00,VWS V14.01,2013-07-08 16:13:00,
2013-07-08 09:18:00,57.9,33.1,29.90,SW,221,2.7,4.0,39,0.00,,,0.00,VWS V14.01,2013-07-08 16:18:00,
2013-07-08 09:23:00,58.3,32.8,29.90,SSW,203,4.0,4.0,38,0.00,,,0.00,VWS V14.01,2013-07-08 16:23:00,
2013-07-08 09:28:00,58.6,33.1,29.90,WNW,287,4.9,5.8,38,0.00,,,0.00,VWS V14.01,2013-07-08 16:28:00,
2013-07-08 09:33:00,59.2,32.3,29.90,SSW,213,3.6,5.4,36,0.00,,,0.00,VWS V14.01,2013-07-08 16:33:00,
2013-07-08 09:39:00,59.7,32.0,29.90,WNW,287,2.7,4.0,35,0.00,,,0.00,VWS V14.01,2013-07-08 16:39:00,
2013-07-08 09:44:00,59.5,31.2,29.90,WSW,251,2.7,2.7,34,0.00,,,0.00,VWS V14.01,2013-07-08 16:44:00,
2013-07-08 09:49:00,59.5,31.2,29.90,West,268,3.6,5.8,34,0.00,,,0.00,VWS V14.01,2013-07-08 16:49:00,
2013-07-08 09:54:00,59.9,31.5,29.90,SW,227,3.6,5.4,34,0.00,,,0.00,VWS V14.01,2013-07-08 16:54:00,
2013-07-08 09:59:00,60.1,30.9,29.90,SW,222,5.4,5.4,33,0.00,,,0.00,VWS V14.01,2013-07-08 16:59:00,
2013-07-08 10:04:00,60.3,30.3,29.93,West,264,0.0,3.6,32,0.00,,,0.00,VWS V14.01,2013-07-08 17:04:00,
2013-07-08 10:09:00,60.4,30.5,29.93,WSW,258,3.6,3.6,32,0.00,,,0.00,VWS V14.01,2013-07-08 17:09:00,
2013-07-08 10:14:00,60.8,30.0,29.93,SW,225,5.4,6.3,31,0.00,,,0.00,VWS V14.01,2013-07-08 17:14:00,
2013-07-08 10:19:00,61.0,28.5,29.93,SW,214,3.6,5.4,29,0.00,,,0.00,VWS V14.01,2013-07-08 17:19:00,
2013-07-08 10:25:00,61.2,27.8,29.93,SSW,197,4.9,5.8,28,0.00,,,0.00,VWS V14.01,2013-07-08 17:25:00,
2013-07-08 10:30:00,61.0,26.8,29.93,West,264,3.1,4.0,27,0.00,,,0.00,VWS V14.01,2013-07-08 17:30:00,
2013-07-08 10:35:00,61.0,28.5,29.93,SW,227,0.0,3.1,29,0.00,,,0.00,VWS V14.01,2013-07-08 17:35:00,
2013-07-08 10:40:00,61.2,28.7,29.93,SSW,206,4.0,4.0,29,0.00,,,0.00,VWS V14.01,2013-07-08 17:40:00,
2013-07-08 10:45:00,61.3,28.0,29.93,SSW,210,3.6,3.6,28,0.00,,,0.00,VWS V14.01,2013-07-08 17:45:00,
2013-07-08 10:50:00,61.7,28.3,29.93,West,266,3.1,3.1,28,0.00,,,0.00,VWS V14.01,2013-07-08 17:50:00,
2013-07-08 10:55:00,62.1,27.7,29.93,West,263,2.2,4.0,27,0.00,,,0.00,VWS V14.01,2013-07-08 17:55:00,
2013-07-08 11:00:00,62.4,28.0,29.93,WSW,257,3.6,3.6,27,0.00,,,0.00,VWS V14.01,2013-07-08 18:00:00,
2013-07-08 11:05:00,62.6,26.3,29.93,WNW,300,4.9,5.4,25,0.00,,,0.00,VWS V14.01,2013-07-08 18:05:00,
2013-07-08 11:10:00,62.8,26.5,29.93,West,263,3.6,5.8,25,0.00,,,0.00,VWS V14.01,2013-07-08 18:10:00,
2013-07-08 11:15:00,62.8,26.5,29.93,WSW,251,2.7,3.6,25,0.00,,,0.00,VWS V14.01,2013-07-08 18:15:00,
2013-07-08 11:20:00,63.5,27.1,29.93,SW,223,3.1,5.8,25,0.00,,,0.00,VWS V14.01,2013-07-08 18:20:00,
2013-07-08 11:25:00,63.7,26.2,29.93,WSW,251,5.8,5.8,24,0.00,,,0.00,VWS V14.01,2013-07-08 18:25:00,
2013-07-08 11:30:00,63.5,26.1,29.93,West,261,5.8,5.8,24,0.00,,,0.00,VWS V14.01,2013-07-08 18:30:00,
2013-07-08 11:35:00,63.7,26.2,29.90,SSW,213,4.0,7.6,24,0.00,,,0.00,VWS V14.01,2013-07-08 18:35:00,
2013-07-08 11:40:00,63.9,26.4,29.90,SSW,213,4.0,5.8,24,0.00,,,0.00,VWS V14.01,2013-07-08 18:40:00,
2013-07-08 11:45:00,63.9,26.4,29.90,SW,234,3.6,5.8,24,0.00,,,0.00,VWS V14.01,2013-07-08 18:45:00,
2013-07-08 11:50:00,63.9,26.4,29.93,SW,221,4.0,5.8,24,0.00,,,0.00,VWS V14.01,2013-07-08 18:50:00,
2013-07-08 11:55:00,63.7,26.2,29.93,WSW,257,3.6,4.0,24,0.00,,,0.00,VWS V14.01,2013-07-08 18:55:00,
2013-07-08 12:00:00,63.9,26.4,29.93,SW,222,4.9,4.9,24,0.00,,,0.00,VWS V14.01,2013-07-08 19:00:00,
2013-07-08 12:06:00,63.9,26.4,29.93,WNW,291,2.7,4.0,24,0.00,,,0.00,VWS V14.01,2013-07-08 19:06:00,
2013-07-08 12:11:00,63.9,26.4,29.93,West,273,4.0,4.9,24,0.00,,,0.00,VWS V14.01,2013-07-08 19:11:00,
2013-07-08 12:16:00,64.2,26.7,29.93,WSW,253,3.6,4.0,24,0.00,,,0.00,VWS V14.01,2013-07-08 19:16:00,
2013-07-08 12:22:00,64.8,26.1,29.93,SE,132,4.0,5.8,23,0.00,,,0.00,VWS V14.01,2013-07-08 19:22:00,
2013-07-08 12:27:00,64.8,26.1,29.93,SSW,203,5.4,5.4,23,0.00,,,0.00,VWS V14.01,2013-07-08 19:27:00,
2013-07-08 12:32:00,65.1,26.4,29.93,West,260,3.1,6.3,23,0.00,,,0.00,VWS V14.01,2013-07-08 19:32:00,
2013-07-08 12:37:00,65.7,23.5,29.93,SSW,211,4.0,4.0,20,0.00,,,0.00,VWS V14.01,2013-07-08 19:37:00,
2013-07-08 12:42:00,66.0,21.3,29.93,SW,230,4.0,5.8,18,0.00,,,0.00,VWS V14.01,2013-07-08 19:42:00,
2013-07-08 12:47:00,66.2,17.2,29.93,WSW,240,3.1,4.9,15,0.00,,,0.00,VWS V14.01,2013-07-08 19:47:00,
2013-07-08 12:52:00,65.7,16.8,29.93,SSW,197,3.6,5.4,15,0.00,,,0.00,VWS V14.01,2013-07-08 19:52:00,
2013-07-08 12:57:00,65.5,20.9,29.93,SSW,197,4.0,4.0,18,0.00,,,0.00,VWS V14.01,2013-07-08 19:57:00,
2013-07-08 13:02:00,65.7,21.0,29.93,SSW,198,5.4,5.8,18,0.00,,,0.00,VWS V14.01,2013-07-08 20:02:00,
2013-07-08 13:08:00,65.7,16.8,29.93,SSW,202,2.2,4.9,15,0.00,,,0.00,VWS V14.01,2013-07-08 20:08:00,
2013-07-08 13:13:00,65.5,20.9,29.93,West,272,4.0,5.8,18,0.00,,,0.00,VWS V14.01,2013-07-08 20:13:00,
2013-07-08 13:18:00,65.3,20.7,29.93,SW,225,3.6,5.4,18,0.00,,,0.00,VWS V14.01,2013-07-08 20:18:00,
2013-07-08 13:23:00,65.1,20.6,29.93,South,188,4.0,4.9,18,0.00,,,0.00,VWS V14.01,2013-07-08 20:23:00,
2013-07-08 13:28:00,65.3,20.7,29.93,SSW,209,4.0,4.0,18,0.00,,,0.00,VWS V14.01,2013-07-08 20:28:00,
2013-07-08 13:33:00,65.5,20.9,29.90,WSW,245,4.9,5.8,18,0.00,,,0.00,VWS V14.01,2013-07-08 20:33:00,
2013-07-08 13:38:00,65.8,21.2,29.90,SSE,168,4.9,6.3,18,0.00,,,0.00,VWS V14.01,2013-07-08 20:38:00,
2013-07-08 13:44:00,65.7,21.0,29.90,SSW,212,2.7,5.8,18,0.00,,,0.00,VWS V14.01,2013-07-08 20:44:00,
2013-07-08 13:49:00,65.5,20.9,29.93,SW,229,2.7,5.8,18,0.00,,,0.00,VWS V14.01,2013-07-08 20:49:00,
2013-07-08 13:54:00,65.7,23.5,29.93,SSE,161,2.2,7.2,20,0.00,,,0.00,VWS V14.01,2013-07-08 20:54:00,
2013-07-08 13:59:00,66.2,20.1,29.93,SSE,162,3.6,6.3,17,0.00,,,0.00,VWS V14.01,2013-07-08 20:59:00,
2013-07-08 14:04:00,66.4,20.3,29.93,WSW,242,4.0,5.8,17,0.00,,,0.00,VWS V14.01,2013-07-08 21:04:00,
2013-07-08 14:09:00,66.4,17.4,29.93,WSW,241,5.4,6.3,15,0.00,,,0.00,VWS V14.01,2013-07-08 21:09:00,
2013-07-08 14:14:00,66.0,21.3,29.93,SW,223,5.4,5.8,18,0.00,,,0.00,VWS V14.01,2013-07-08 21:14:00,
2013-07-08 14:19:00,66.0,21.3,29.93,SSW,209,4.0,5.8,18,0.00,,,0.00,VWS V14.01,2013-07-08 21:19:00,
2013-07-08 14:24:00,66.0,21.3,29.93,WSW,244,5.4,5.8,18,0.00,,,0.00,VWS V14.01,2013-07-08 21:24:00,
2013-07-08 14:29:00,65.7,16.8,29.93,SW,225,3.6,3.6,15,0.00,,,0.00,VWS V14.01,2013-07-08 21:29:00,
2013-07-08 14:34:00,65.7,21.0,29.93,SE,145,3.1,4.0,18,0.00,,,0.00,VWS V14.01,2013-07-08 21:34:00,
2013-07-08 14:39:00,66.0,21.3,29.93,SW,218,2.7,4.0,18,0.00,,,0.00,VWS V14.01,2013-07-08 21:39:00,
2013-07-08 14:45:00,66.4,20.3,29.93,SSW,198,5.8,6.3,17,0.00,,,0.00,VWS V14.01,2013-07-08 21:45:00,
2013-07-08 14:50:00,66.6,20.4,29.93,SW,232,2.7,2.7,17,0.00,,,0.00,VWS V14.01,2013-07-08 21:50:00,
2013-07-08 14:55:00,66.9,17.8,29.93,SSW,199,4.0,7.6,15,0.00,,,0.00,VWS V14.01,2013-07-08 21:55:00,
2013-07-08 15:01:00,66.4,17.4,29.93,SW,235,3.6,5.8,15,0.00,,,0.00,VWS V14.01,2013-07-08 22:01:00,
2013-07-08 15:06:00,67.1,20.9,29.93,SSW,199,4.0,4.9,17,0.00,,,0.00,VWS V14.01,2013-07-08 22:06:00,
2013-07-08 15:11:00,67.5,18.2,29.93,South,190,5.4,5.4,15,0.00,,,0.00,VWS V14.01,2013-07-08 22:11:00,
2013-07-08 15:16:00,67.8,18.5,29.93,SW,216,5.8,5.8,15,0.00,,,0.00,VWS V14.01,2013-07-08 22:16:00,
2013-07-08 15:21:00,67.6,18.4,29.93,SSE,162,3.6,5.4,15,0.00,,,0.00,VWS V14.01,2013-07-08 22:21:00,
2013-07-08 15:26:00,67.5,18.2,29.93,WSW,241,3.6,6.3,15,0.00,,,0.00,VWS V14.01,2013-07-08 22:26:00,
2013-07-08 15:31:00,67.1,17.9,29.93,West,261,4.0,5.8,15,0.00,,,0.00,VWS V14.01,2013-07-08 22:31:00,
2013-07-08 15:36:00,66.9,17.8,29.93,SW,215,5.4,5.4,15,0.00,,,0.00,VWS V14.01,2013-07-08 22:36:00,
2013-07-08 15:41:00,66.9,17.8,29.93,West,265,5.8,5.8,15,0.00,,,0.00,VWS V14.01,2013-07-08 22:41:00,
2013-07-08 15:46:00,66.7,20.6,29.93,SSW,211,5.4,5.8,17,0.00,,,0.00,VWS V14.01,2013-07-08 22:46:00,
2013-07-08 15:51:00,66.6,17.5,29.93,South,178,2.7,4.9,15,0.00,,,0.00,VWS V14.01,2013-07-08 22:51:00,
2013-07-08 15:56:00,66.6,17.5,29.93,WSW,250,3.1,3.1,15,0.00,,,0.00,VWS V14.01,2013-07-08 22:56:00,
2013-07-08 16:02:00,66.6,20.4,29.93,West,279,4.9,6.3,17,0.00,,,0.00,VWS V14.01,2013-07-08 23:02:00,
2013-07-08 16:07:00,66.2,20.1,29.93,West,263,2.7,4.9,17,0.00,,,0.00,VWS V14.01,2013-07-08 23:07:00,
2013-07-08 16:12:00,66.6,20.4,29.93,SW,215,3.6,4.0,17,0.00,,,0.00,VWS V14.01,2013-07-08 23:12:00,
2013-07-08 16:17:00,67.5,21.2,29.93,SW,234,7.2,7.2,17,0.00,,,0.00,VWS V14.01,2013-07-08 23:17:00,
2013-07-08 16:22:00,67.8,18.5,29.90,WSW,237,3.6,5.8,15,0.00,,,0.00,VWS V14.01,2013-07-08 23:22:00,
2013-07-08 16:27:00,68.2,18.8,29.90,SE,134,2.7,4.0,15,0.00,,,0.00,VWS V14.01,2013-07-08 23:27:00,
2013-07-08 16:32:00,68.7,19.2,29.90,SSW,207,3.6,5.4,15,0.00,,,0.00,VWS V14.01,2013-07-08 23:32:00,
2013-07-08 16:37:00,68.9,14.2,29.90,SW,236,4.9,4.9,12,0.00,,,0.00,VWS V14.01,2013-07-08 23:37:00,
2013-07-08 16:42:00,68.5,19.1,29.90,SSW,212,3.6,4.9,15,0.00,,,0.00,VWS V14.01,2013-07-08 23:42:00,
2013-07-08 16:47:00,68.4,19.0,29.90,WNW,283,4.0,4.0,15,0.00,,,0.00,VWS V14.01,2013-07-08 23:47:00,
2013-07-08 16:52:00,68.0,18.7,29.90,SSW,198,4.5,4.9,15,0.00,,,0.00,VWS V14.01,2013-07-08 23:52:00,
2013-07-08 16:57:00,67.5,18.2,29.90,West,272,2.2,4.9,15,0.00,,,0.00,VWS V14.01,2013-07-08 23:57:00,
2013-07-08 17:03:00,66.7,17.6,29.90,SSW,209,5.8,5.8,15,0.00,,,0.00,VWS V14.01,2013-07-09 00:03:00,
2013-07-08 17:08:00,66.4,20.3,29.90,SE,145,2.7,3.6,17,0.00,,,0.00,VWS V14.01,2013-07-09 00:08:00,
2013-07-08 17:13:00,66.2,20.1,29.90,SW,232,5.8,5.8,17,0.00,,,0.00,VWS V14.01,2013-07-09 00:13:00,
2013-07-08 17:18:00,66.0,23.8,29.90,SSW,204,4.0,4.0,20,0.00,,,0.00,VWS V14.01,2013-07-09 00:18:00,
2013-07-08 17:23:00,66.2,24.0,29.90,South,178,3.1,3.1,20,0.00,,,0.00,VWS V14.01,2013-07-09 00:23:00,
2013-07-08 17:28:00,65.8,23.7,29.90,SW,230,3.6,3.6,20,0.00,,,0.00,VWS V14.01,2013-07-09 00:28:00,
2013-07-08 17:33:00,65.5,23.4,29.90,SW,221,6.7,6.7,20,0.00,,,0.00,VWS V14.01,2013-07-09 00:33:00,
2013-07-08 17:38:00,65.7,26.9,29.90,SW,230,4.0,4.0,23,0.00,,,0.00,VWS V14.01,2013-07-09 00:38:00,
2013-07-08 17:43:00,65.8,27.0,29.90,South,177,2.7,5.4,23,0.00,,,0.00,VWS V14.01,2013-07-09 00:43:00,
2013-07-08 17:48:00,65.8,23.7,29.90,SSW,212,5.4,5.4,20,0.00,,,0.00,VWS V14.01,2013-07-09 00:48:00,
2013-07-08 17:54:00,65.5,23.4,29.90,SSW,196,3.6,5.8,20,0.00,,,0.00,VWS V14.01,2013-07-09 00:54:00,
2013-07-08 17:59:00,64.9,26.3,29.90,SW,230,3.1,5.4,23,0.00,,,0.00,VWS V14.01,2013-07-09 00:59:00,
2013-07-08 18:04:00,65.1,26.4,29.90,SW,227,5.4,5.4,23,0.00,,,0.00,VWS V14.01,2013-07-09 01:04:00,
2013-07-08 18:09:00,64.9,26.3,29.90,South,190,5.4,5.8,23,0.00,,,0.00,VWS V14.01,2013-07-09 01:09:00,
2013-07-08 18:15:00,64.9,26.3,29.90,SW,225,2.7,4.0,23,0.00,,,0.00,VWS V14.01,2013-07-09 01:15:00,
2013-07-08 18:20:00,64.8,26.1,29.90,SW,233,5.4,5.4,23,0.00,,,0.00,VWS V14.01,2013-07-09 01:20:00,
2013-07-08 18:26:00,64.9,26.3,29.90,SSW,206,5.4,5.4,23,0.00,,,0.00,VWS V14.01,2013-07-09 01:26:00,
2013-07-08 18:31:00,64.8,26.1,29.90,SSW,210,5.4,5.8,23,0.00,,,0.00,VWS V14.01,2013-07-09 01:31:00,
2013-07-08 18:37:00,64.0,26.5,29.90,SW,219,4.9,6.3,24,0.00,,,0.00,VWS V14.01,2013-07-09 01:37:00,
2013-07-08 18:42:00,63.1,26.8,29.90,SSW,209,5.4,5.4,25,0.00,,,0.00,VWS V14.01,2013-07-09 01:42:00,
2013-07-08 18:47:00,62.6,27.3,29.90,SW,225,3.1,3.1,26,0.00,,,0.00,VWS V14.01,2013-07-09 01:47:00,
2013-07-08 18:52:00,62.1,28.6,29.90,SSW,205,4.9,4.9,28,0.00,,,0.00,VWS V14.01,2013-07-09 01:52:00,
2013-07-08 18:58:00,61.9,30.1,29.90,SW,234,5.4,5.4,30,0.00,,,0.00,VWS V14.01,2013-07-09 01:58:00,
2013-07-08 19:03:00,61.9,31.7,29.90,SSW,200,4.0,4.0,32,0.00,,,0.00,VWS V14.01,2013-07-09 02:03:00,
2013-07-08 19:08:00,61.7,31.6,29.90,SSW,196,2.7,5.8,32,0.00,,,0.00,VWS V14.01,2013-07-09 02:08:00,
2013-07-08 19:13:00,61.5,32.9,29.90,SW,224,4.0,4.0,34,0.00,,,0.00,VWS V14.01,2013-07-09 02:13:00,
2013-07-08 19:18:00,61.3,32.8,29.90,SW,227,4.0,5.8,34,0.00,,,0.00,VWS V14.01,2013-07-09 02:18:00,
2013-07-08 19:24:00,60.6,32.1,29.90,SSE,164,2.7,2.7,34,0.00,,,0.00,VWS V14.01,2013-07-09 02:24:00,
2013-07-08 19:29:00,60.1,32.4,29.90,WSW,240,4.0,4.0,35,0.00,,,0.00,VWS V14.01,2013-07-09 02:29:00,
2013-07-08 19:34:00,59.9,32.2,29.90,SSW,197,3.1,3.1,35,0.00,,,0.00,VWS V14.01,2013-07-09 02:34:00,
2013-07-08 19:39:00,59.5,33.3,29.90,SSW,195,4.9,5.4,37,0.00,,,0.00,VWS V14.01,2013-07-09 02:39:00,
2013-07-08 19:45:00,59.2,33.0,29.90,SSW,208,2.7,2.7,37,0.00,,,0.00,VWS V14.01,2013-07-09 02:45:00,
2013-07-08 19:50:00,58.8,33.9,29.90,SSW,197,5.4,5.4,39,0.00,,,0.00,VWS V14.01,2013-07-09 02:50:00,
2013-07-08 19:55:00,58.5,34.2,29.90,WSW,250,2.7,4.0,40,0.00,,,0.00,VWS V14.01,2013-07-09 02:55:00,
2013-07-08 20:01:00,58.3,35.3,29.90,SSW,197,4.5,4.9,42,0.00,,,0.00,VWS V14.01,2013-07-09 03:01:00,
2013-07-08 20:06:00,58.3,35.9,29.90,SSW,195,2.7,4.0,43,0.00,,,0.00,VWS V14.01,2013-07-09 03:06:00,
2013-07-08 20:11:00,58.3,36.5,29.90,SW,227,2.2,3.6,44,0.00,,,0.00,VWS V14.01,2013-07-09 03:11:00,
2013-07-08 20:16:00,57.9,36.2,29.90,SSW,195,2.7,3.1,44,0.00,,,0.00,VWS V14.01,2013-07-09 03:16:00,
2013-07-08 20:21:00,57.9,36.2,29.93,SSW,209,2.7,4.0,44,0.00,,,0.00,VWS V14.01,2013-07-09 03:21:00,
2013-07-08 20:27:00,57.9,36.7,29.93,SW,215,2.7,5.4,45,0.00,,,0.00,VWS V14.01,2013-07-09 03:27:00,
2013-07-08 20:32:00,57.6,36.4,29.93,SSW,208,2.7,2.7,45,0.00,,,0.00,VWS V14.01,2013-07-09 03:32:00,
2013-07-08 20:37:00,57.6,36.4,29.90,SSW,210,3.6,3.6,45,0.00,,,0.00,VWS V14.01,2013-07-09 03:37:00,
2013-07-08 20:43:00,57.6,37.0,29.90,SW,226,3.6,3.6,46,0.00,,,0.00,VWS V14.01,2013-07-09 03:43:00,
2013-07-08 20:48:00,57.4,36.8,29.93,South,169,5.8,5.8,46,0.00,,,0.00,VWS V14.01,2013-07-09 03:48:00,
2013-07-08 20:53:00,57.2,37.2,29.93,SSW,197,3.1,3.1,47,0.00,,,0.00,VWS V14.01,2013-07-09 03:53:00,
2013-07-08 20:59:00,57.2,37.2,29.93,SSE,157,2.7,4.0,47,0.00,,,0.00,VWS V14.01,2013-07-09 03:59:00,
2013-07-08 21:01:00,57.2,37.2,29.93,SSW,198,4.0,4.0,47,0.00,,,0.00,VWS V14.01,2013-07-09 04:01:00,
2013-07-08 21:02:00,57.2,37.2,29.93,SW,216,5.4,5.4,47,0.00,,,0.00,VWS V14.01,2013-07-09 04:02:00,
2013-07-08 21:07:00,57.0,37.5,29.93,SSE,152,4.0,4.0,48,0.00,,,0.00,VWS V14.01,2013-07-09 04:07:00,
2013-07-08 21:12:00,56.8,37.9,29.93,SSW,205,2.2,4.0,49,0.00,,,0.00,VWS V14.01,2013-07-09 04:12:00,
2013-07-08 21:17:00,56.7,37.7,29.93,SE,141,4.0,4.0,49,0.00,,,0.00,VWS V14.01,2013-07-09 04:17:00,
2013-07-08 21:22:00,56.7,37.7,29.93,SW,220,3.1,3.1,49,0.00,,,0.00,VWS V14.01,2013-07-09 04:22:00,
2013-07-08 21:27:00,56.7,37.7,29.93,SW,214,3.1,3.1,49,0.00,,,0.00,VWS V14.01,2013-07-09 04:27:00,
2013-07-08 21:32:00,56.7,38.2,29.93,South,175,2.2,2.7,50,0.00,,,0.00,VWS V14.01,2013-07-09 04:32:00,
2013-07-08 21:37:00,56.7,38.2,29.93,South,186,2.2,2.2,50,0.00,,,0.00,VWS V14.01,2013-07-09 04:37:00,
2013-07-08 21:42:00,56.7,38.2,29.93,South,191,3.1,3.1,50,0.00,,,0.00,VWS V14.01,2013-07-09 04:42:00,
2013-07-08 21:47:00,56.7,38.8,29.93,South,170,2.2,2.7,51,0.00,,,0.00,VWS V14.01,2013-07-09 04:47:00,
2013-07-08 21:53:00,56.7,38.8,29.93,South,184,2.7,3.1,51,0.00,,,0.00,VWS V14.01,2013-07-09 04:53:00,
2013-07-08 21:58:00,56.5,38.6,29.93,South,175,3.1,3.1,51,0.00,,,0.00,VWS V14.01,2013-07-09 04:58:00,
2013-07-08 22:03:00,56.5,39.1,29.93,SSW,212,3.1,3.1,52,0.00,,,0.00,VWS V14.01,2013-07-09 05:03:00,
2013-07-08 22:08:00,56.7,39.2,29.93,SSW,212,0.0,0.0,52,0.00,,,0.00,VWS V14.01,2013-07-09 05:08:00,
2013-07-08 22:13:00,56.5,39.1,29.93,SW,214,0.0,2.7,52,0.00,,,0.00,VWS V14.01,2013-07-09 05:13:00,
2013-07-08 22:18:00,56.5,39.1,29.93,SSW,201,3.1,3.1,52,0.00,,,0.00,VWS V14.01,2013-07-09 05:18:00,
2013-07-08 22:23:00,56.5,39.6,29.93,SSW,206,2.7,2.7,53,0.00,,,0.00,VWS V14.01,2013-07-09 05:23:00,
2013-07-08 22:28:00,56.5,39.6,29.93,SSW,207,3.1,3.1,53,0.00,,,0.00,VWS V14.01,2013-07-09 05:28:00,
2013-07-08 22:33:00,56.5,40.0,29.93,SSW,210,3.1,3.1,54,0.00,,,0.00,VWS V14.01,2013-07-09 05:33:00,
2013-07-08 22:38:00,56.5,40.5,29.93,SW,216,3.1,3.1,55,0.00,,,0.00,VWS V14.01,2013-07-09 05:38:00,
2013-07-08 22:43:00,56.3,40.4,29.93,SSW,208,2.2,2.7,55,0.00,,,0.00,VWS V14.01,2013-07-09 05:43:00,
2013-07-08 22:48:00,56.3,40.8,29.93,SSW,200,3.1,3.1,56,0.00,,,0.00,VWS V14.01,2013-07-09 05:48:00,
2013-07-08 22:53:00,56.1,40.7,29.93,SSW,212,3.1,3.1,56,0.00,,,0.00,VWS V14.01,2013-07-09 05:53:00,
2013-07-08 22:58:00,56.1,40.7,29.93,SSW,193,0.0,2.7,56,0.00,,,0.00,VWS V14.01,2013-07-09 05:58:00,
2013-07-08 23:03:00,55.9,40.9,29.93,South,177,4.0,4.0,57,0.00,,,0.00,VWS V14.01,2013-07-09 06:03:00,
2013-07-08 23:08:00,55.8,40.8,29.93,South,191,0.0,2.2,57,0.00,,,0.00,VWS V14.01,2013-07-09 06:08:00,
2013-07-08 23:13:00,55.8,40.8,29.93,WSW,237,3.1,3.1,57,0.00,,,0.00,VWS V14.01,2013-07-09 06:13:00,
2013-07-08 23:18:00,55.8,41.2,29.93,SSW,200,3.6,3.6,58,0.00,,,0.00,VWS V14.01,2013-07-09 06:18:00,
2013-07-08 23:23:00,55.6,41.0,29.93,SSW,200,3.1,3.1,58,0.00,,,0.00,VWS V14.01,2013-07-09 06:23:00,
2013-07-08 23:28:00,55.6,41.0,29.93,SSW,209,2.7,2.7,58,0.00,,,0.00,VWS V14.01,2013-07-09 06:28:00,
2013-07-08 23:33:00,55.6,41.5,29.93,SSW,210,3.6,3.6,59,0.00,,,0.00,VWS V14.01,2013-07-09 06:33:00,
2013-07-08 23:38:00,55.6,41.9,29.96,SSW,212,2.7,3.6,60,0.00,,,0.00,VWS V14.01,2013-07-09 06:38:00,
2013-07-08 23:43:00,55.6,41.9,29.96,SW,217,2.7,3.1,60,0.00,,,0.00,VWS V14.01,2013-07-09 06:43:00,
2013-07-08 23:48:00,55.6,42.4,29.96,SW,234,3.1,4.0,61,0.00,,,0.00,VWS V14.01,2013-07-09 06:48:00,
2013-07-08 23:53:00,55.6,42.8,29.96,SW,214,3.1,3.1,62,0.00,,,0.00,VWS V14.01,2013-07-09 06:53:00,
2013-07-08 23:58:00,55.4,42.6,29.96,SW,228,2.2,2.7,62,0.00,,,0.00,VWS V14.01,2013-07-09 06:58:00,